www.pogodaiklimat.ru

Погода и климат >> Архив погоды >> Бангладеш >> Богра


ПОГОДА в Богре

  • Прогноз погоды в Богре
  • Монитор погоды в Богре

АРХИВ ПОГОДЫ в Богре

Время (UTC), дата Ветер
(напр.,м/с)
 
Видим.   Явления Облачность Т
(С)
Тd
(С)
f
(%)
Тe
(С)
Тes
(С)
Комфортность P
(гПа)
Po
(гПа)
Тmin
(С)
Tmax
(С)
R
(мм)
R24
(мм)
S
(см)
12 10.07 В 2 6000 м 8/3 480 м
[Sc Ac trans]
+31.6 +31.0 97 +62 +62 опасность
перегрева
997.1 995.1 +32.2
15 10.07 ЮЗ 1 3000 м 10/6 270 м
[Cb calv As op]
+25.6 +25.0 96 +36 +36 очень
душно
999.7 997.7 52
18 10.07 штиль 0 3000 м гроза, ливневой дождь 10/6 270 м
[Cb calv As op]
+26.0 +25.0 94 +37 +37 очень
душно
999.5 997.5 58
21 10.07 штиль 0 3000 м слаб. дождь {гроза} 10/6 270 м
[Frnb As op]
+26.0 +25.0 94 +37 +37 очень
душно
999.2 997.2 5
00 11.07 ЮВ 1 3000 м слаб. дождь {гроза} 10/6 270 м
[Frnb As op]
+26.1 +26.0 99 +39 +39 очень
душно
998.9 996.9 9
03 11.07 Ю 1 4000 м {дождь} 10/6 270 м
[St As op]
+28.5 +28.0 97 +47 +48 опасность
перегрева
1000.7 998.6 +25.3 1
06 11.07 Ю 1 5000 м в посл. час дождь 10/6 270 м
[St As op]
+30.0 +27.0 84 +47 +49 опасность
перегрева
1000.6 998.5 1
09 11.07 З 1 5000 м слаб. дождь 10/6 270 м
[Frnb As op]
+26.0 +25.0 94 +37 +38 очень
душно
999.8 997.8 31
12 11.07 З 1 5000 м слаб. дождь 10/6 270 м
[Frnb As op]
+26.6 +26.0 97 +40 +40 очень
душно
1000.5 998.5 +31.0 38
15 11.07 ЮВ 1 3000 м слаб. дождь 10/6 270 м
[Frnb As op]
+26.5 +26.0 97 +40 +40 очень
душно
1003.2 1001.2 2
18 11.07 ЮВ 2 3000 м {дождь} 10/6 270 м
[St As op]
+26.0 +25.0 94 +37 +37 очень
душно
1002.8 1000.8 3
21 11.07 ЮВ 1 3000 м 10/6 270 м
[St As op]
+26.0 +25.0 94 +37 +37 очень
душно
1001.5 999.5
00 12.07 ЮВ 2 4000 м 10/6 270 м
[St As op]
+26.5 +26.0 97 +40 +40 очень
душно
1002.2 1000.2
03 12.07 Ю 2 6000 м 10/6 270 м
[St As op]
+28.9 +25.0 80 +42 +43 опасность
перегрева
1002.5 1000.5 +25.4
06 12.07 Ю 2 6000 м 8/4 450 м
[Sc As trans]
+32.5 +27.0 73 +51 +59 опасность
перегрева
1001.8 999.8
09 12.07 ЮЗ 1 6000 м 8/4 450 м
[Sc As trans]
+33.2 +27.0 70 +51 +57 опасность
перегрева
1000.7 998.7
12 12.07 Ю 1 5000 м 10/6 270 м
[St As op]
+29.4 +26.0 82 +44 +44 опасность
перегрева
1001.0 999.0 +33.5
15 12.07 Ю 1 3000 м 10/6 270 м
[St As op]
+27.0 +25.0 89 +39 +39 очень
душно
1003.2 1001.2
18 12.07 Ю 1 3000 м 10/6 270 м
[St As op]
+27.0 +25.0 89 +39 +39 очень
душно
1003.3 1001.3
21 12.07 Ю 1 3000 м 10/6 270 м
[St As op]
+27.0 +26.0 94 +40 +40 очень
душно
1002.5 1000.5
00 13.07 Ю 1 4000 м слаб. дождь 10/6 270 м
[Frnb As op]
+27.4 +26.0 92 +41 +41 опасность
перегрева
1001.7 999.7 2
03 13.07 З 1 5000 м {дождь} 10/6 270 м
[St As op]
+29.0 +27.0 89 +46 +47 опасность
перегрева
1002.7 1000.7 +26.5 1
06 13.07 СЗ 1 5000 м гроза, ливневой дождь 10/6 270 м
[Cb calv As op]
+28.3 +26.0 87 +42 +45 опасность
перегрева
1002.5 1000.5 4
09 13.07 штиль 0 6000 м {гроза, дождь} 10/6 450 м
[Sc As op]
+29.5 +26.0 81 +44 +46 опасность
перегрева
1000.4 998.4 1
12 13.07 штиль 0 5000 м {гроза, дождь} 10/6 270 м
[St As op]
+28.3 +27.0 93 +45 +45 опасность
перегрева
999.7 997.6 +30.0 1
15 13.07 ЮВ 2 3000 м 10/6 270 м
[St As op]
+27.4 +25.0 87 +39 +39 очень
душно
1000.9 998.8
18 13.07 ЮВ 2 3000 м 10/6 270 м
[St As op]
+27.0 +25.0 89 +39 +39 очень
душно
1000.9 998.9
00 14.07 ЮВ 1 3000 м слаб. дождь 10/6 270 м
[Frnb As op]
+25.0 +24.0 94 +34 +34 очень
душно
1000.0 998.0 22
03 14.07 Ю 1 5000 м слаб. дождь 10/6 270 м
[Frnb As op]
+25.6 +25.0 96 +36 +38 очень
душно
1001.3 999.3 +24.5 1
06 14.07 штиль 0 6000 м {дождь} 10/6 480 м
[Sc As op]
+29.4 +26.0 82 +44 +47 опасность
перегрева
1001.1 999.0 1
09 14.07 штиль 0 6000 м 10/6 450 м
[Sc As op]
+30.8 +26.0 76 +46 +48 опасность
перегрева
999.5 997.5
12 14.07 ЮВ 1 6000 м 8/4 450 м
[Sc As trans]
+29.7 +26.0 81 +45 +45 опасность
перегрева
998.5 996.5 +31.0
15 14.07 ЮВ 1 3000 м гроза без осадков 10/6 450 м
[Cb calv As op]
+28.6 +27.0 91 +45 +45 опасность
перегрева
998.2 996.1
18 14.07 ЮВ 2 3000 м зарница {гроза} 10/6 270 м
[Cb calv As op]
+27.6 +26.0 91 +41 +41 опасность
перегрева
997.9 995.9
21 14.07 ЮВ 1 3000 м гроза, ливневой дождь 10/6 270 м
[Cb calv As op]
+26.2 +26.0 99 +39 +39 очень
душно
998.2 996.2 22
00 15.07 штиль 0 3000 м гроза, ливневой дождь 10/6 270 м
[Cb calv As op]
+24.8 +24.0 95 +34 +34 очень
душно
998.6 996.6 50
03 15.07 штиль 0 4000 м гроза, ливневой дождь 10/6 270 м
[Cb calv As op]
+25.2 +24.0 93 +35 +36 очень
душно
1000.0 998.0 +23.7 14
06 15.07 штиль 0 5000 м {гроза, дождь} 10/6 270 м
[St As op]
+28.0 +26.0 89 +42 +44 опасность
перегрева
1000.0 998.0 14
09 15.07 ЮВ 2 6000 м 10/6 270 м
[St As op]
+27.5 +26.0 92 +41 +42 опасность
перегрева
999.7 997.7
12 15.07 ЮВ 1 6000 м 6/1 480 м
[Sc Ac trans]
+27.5 +26.0 92 +41 +42 опасность
перегрева
999.3 997.3 +28.2
15 15.07 ЮВ 2 3000 м 10/6 450 м
[Sc As op]
+27.0 +25.0 89 +39 +39 очень
душно
1000.0 998.0
18 15.07 штиль 0 3000 м 10/6 270 м
[St As op]
+26.3 +24.0 87 +36 +36 очень
душно
1000.7 998.7
21 15.07 штиль 0 3000 м в посл. час дождь 10/6 270 м
[St As op]
+25.8 +25.0 95 +37 +37 очень
душно
1000.8 998.8 1
00 16.07 штиль 0 3000 м {дождь} 10/6 270 м
[St As op]
+25.6 +25.0 96 +36 +36 очень
душно
1001.0 999.0 1
03 16.07 ЮВ 1 5000 м 10/10 270 м
[St As op]
+28.4 +25.0 82 +41 +41 опасность
перегрева
1002.5 1000.5 +24.8
06 16.07 ЮВ 1 6000 м 8/4 450 м
[Sc As trans]
+30.4 +25.0 73 +44 +53 опасность
перегрева
1002.4 1000.3
09 16.07 ЮВ 1 6000 м 8/4 450 м
[Sc As trans]
+31.8 +27.0 76 +50 +55 опасность
перегрева
1001.2 999.2
12 16.07 В 1 6000 м 8/4 450 м
[Sc As trans]
+31.0 +27.0 79 +48 +49 опасность
перегрева
1000.2 998.2 +32.2
15 16.07 штиль 0 3000 м 4/0
[Ac trans]
+29.2 +25.0 78 +42 +42 опасность
перегрева
1002.2 1000.1
18 16.07 штиль 0 3000 м 1/0
[Ac trans]
+27.8 +26.0 90 +42 +42 опасность
перегрева
1002.3 1000.3
21 16.07 штиль 0 3000 м 4/0
[Ac trans]
+27.0 +26.0 94 +40 +40 очень
душно
1001.7 999.7
00 17.07 штиль 0 6000 м 4/0
[Ac trans]
+26.8 +26.0 95 +40 +40 очень
душно
1002.2 1000.2
06 17.07 штиль 0 6000 м 8/5 450 м
[Cu Sc As trans]
+32.4 +26.0 69 +48 +58 опасность
перегрева
1002.1 1000.1

 

Местоположение метеостанции Богра (Бангладеш): широта 24.85 долгота 89.37 высота над уровнем моря 20 м.

В архиве по умолчанию представлена погода в Богре за последнюю неделю. Архивные данные за месяц целиком и за предыдущие месяцы, начиная с января 2011 года, Вы можете получить, выбрав интересующий диапазон дат из раскрывающегося списка и нажав кнопку "Ввод!".


*Определитесь, кто Вы:
робот инопланетянин человек

Внимание! Время в таблицах - всемирное. Для получения местного времени необходимо прибавить поправку, которая равна 6.5 ч.

Смотрите также архив погоды в соседних городах и на ближайших метеорологических станциях:

Погода в Тараше (Бангладеш) (67 км)
Погода в Балургхате (Западная Бенгалия, Индия) (72 км)
Погода в Раджшахи (Бангладеш) (86 км)
Погода в Ишварди (Бангладеш) (86 км)
Погода в Тангайле (Бангладеш) (88 км)
Погода в Рангпуре (Бангладеш) (99 км)
Погода в Раджархэте (Бангладеш) (107 км)
Погода в Маймансингхе (Бангладеш) (108 км)
Погода в Саидпуре (Бангладеш) (110 км)
Погода в Бадалхачги (Бангладеш) (110 км)

Пояснения к столбцам:

Ветер - указаны скорость ветра в м/с - средняя за 10 мин, порывы в срок и между сроками (в фигурных скобках) и направление, откуда дует ветер: С - северный, СВ - северо-восточный, В - восточный, ЮВ - юго-восточный, Ю - южный, ЮЗ - юго-западный, З - западный, СЗ - северо-западный.
Видимость - горизонтальная дальность видимости в метрах или километрах. При видимости от 1 до 10 км при отсутствии осадков обычно наблюдается дымка, при ухудшении видимости до 1 км и менее - туман. В сухую погоду видимость может ухудшаться дымом, пылью или мглою.
Явления - указаны атмосферные явления, наблюдавшиеся в срок или в последний час перед сроком; фигурными скобками обозначены явления, наблюдавшиеся между сроками (за 1-3 часа до срока); квадратными скобками обозначены град или гололедные отложения с указанием их диаметра в мм.
Облачность - указаны через наклонную черту общая и нижняя облачность в баллах и высота нижней границы облаков в метрах; квадратными скобками обозначены формы облаков: Ci - перистые, Cs - перисто-слоистые, Cc - перисто-кучевые, Ac - высококучевые, As - высокослоистые, Sc - слоисто-кучевые, Ns - слоисто-дождевые, Cu - кучевые, Cb - кучево-дождевые. Подробнее классификацию облаков см. в Атласе облаков (PDF).
T - Температура воздуха - температура, измеренная на высоте 2 м над землей.
Td - Температура точки росы - температура, при понижении до которой содержащийся в воздухе водяной пар достигнет насыщения.
f - Относительная влажность воздуха - влажноcть воздуха, измеренная на высоте 2 м над землей.
Te - Эффективная температура - температура, которую ощущает одетый по сезону человек в тени. Характеристика душности погоды. При расчете учитывается влияние влажности воздуха и скорости ветра на теплоощущения человека.
Tes - Эффективная температура на солнце - температура, которую ощущает человек, с поправкой на солнечный нагрев. Характеристика знойности погоды. Зависит от высоты солнца над горизонтом, облачности и скорости ветра. Ночью, в пасмурную погоду, а также при ветре 12 м/с и более поправка равна нулю.
P - Атмосферное давление - приведенное к уровню моря атмосферное давление.
Po - Атмосферное давление - измеренное на уровне метеостанции атмосферное давление.
Tmin - Минимальная температура - минимум температуры воздуха на высоте 2 м над землей.
Tmax - Максимальная температура - максимум температуры воздуха на высоте 2 м над землей.
R - Количество осадков - Количество выпавших осадков за период времени, мм. При наведении курсора мыши на число - период времени, за который выпало указанное количество осадков.
R24 - Количество осадков - Количество выпавших осадков за 24 часа, мм.
S - Снежный покров - Высота снежного покрова, см. При наведении курсора мыши на число - состояние снежного покрова и степень покрытия местности в баллах.